Regional Weather Roundup
Issued by NWS Upton, NY

Current Version | Previous Version | Graphics & Text | Print | Product List | Glossary Off
Versions: 1 2 3 4 5 6 7 8 9 10 11 12 13 14 15 16 17 18 19 20 21 22 23 24 25 26 27 28 29 30 31 32 33 34 35 36 37 38 39 40 41 42 43 44 45 46 47 48 49 50

000
ASUS41 KOKX 251218
RWROKX

REGIONAL WEATHER ROUNDUP
NATIONAL WEATHER SERVICE NEW YORK NY
800 AM EDT MON MAY 25 2015

NOTE: "FAIR" INDICATES FEW OR NO CLOUDS BELOW 12,000 FEET WITH NO
SIGNIFICANT WEATHER AND/OR OBSTRUCTIONS TO VISIBILITY.

NYZ071-072-176-178-NJZ106-104-251300-
NEW YORK CITY METRO AREA


CITY           SKY/WX    TMP DP  RH WIND       PRES   REMARKS
CENTRAL PARK   CLOUDY    67  54  63 CALM      30.30R
LAGUARDIA APRT PTSUNNY   67  54  63 S8        30.27S
KENNEDY INTL   PTSUNNY   63  54  72 S8        30.29S
NEWARK/LIBERTY CLOUDY    65  55  70 S6        30.27S
BRNX BOT. GARD   N/A     68  55  64 SW6       30.29S
TETERBORO      CLOUDY    65  54  67 S6        30.26S
$$

NYZ177-179-078>081-251300-
LONG ISLAND NEW YORK

CITY           SKY/WX    TMP DP  RH WIND       PRES   REMARKS
FARMINGDALE    MOSUNNY   66  56  70 SW7       30.29R
ISLIP          PTSUNNY   65  55  70 SW9       30.28R
SHIRLEY        MOSUNNY   64  56  75 S6        30.30R
WESTHAMPTON    MOSUNNY   62  55  77 SW9       30.30S
MONTAUK POINT    N/A     59  53  80 SE3       30.31R
$$

NYZ052-065-067-251300-
HUDSON VALLEY

CITY           SKY/WX    TMP DP  RH WIND       PRES   REMARKS
WHITE PLAINS   PTSUNNY   64  55  72 SE3       30.27R
NEWBURGH       PTSUNNY   64  54  68 CALM      30.26S
MONTGOMERY     CLOUDY    64  55  72 CALM      30.25S
POUGHKEEPSIE   CLOUDY    65  55  70 CALM      30.24S
ALBANY         LGT RAIN  63  49  60 VRB3      30.24S
$$

NJZ001-105-106-008-010-013-015-019>022-104-251300-
NEW JERSEY

CITY           SKY/WX    TMP DP  RH WIND       PRES   REMARKS
NEWARK/LIBERTY CLOUDY    65  55  70 S6        30.27S
TETERBORO      CLOUDY    65  54  67 S6        30.26S
CALDWELL       CLOUDY    64  54  69 CALM      30.27S
MORRISTOWN     PTSUNNY   63  55  77 S5        30.27S
SOMERVILLE     PTSUNNY   64  55  72 CALM      30.26R
SUSSEX         CLOUDY    61  52  72 CALM      30.27S
ANDOVER          N/A     64  57  78 CALM      30.27R
TRENTON        MOSUNNY   64  57  78 S7        30.28R
MILLVILLE      SUNNY     68  60  75 VRB5      30.29R
ATLANTIC CITY  SUNNY     68  58  70 SW12      30.30R
WRIGHTSTOWN    SUNNY     66  58  77 SW6       30.27R
TOMS RIVER     SUNNY    N/A N/A N/A SW8       30.29R
BELMAR         MOSUNNY   63  54  72 SW6       30.29R
$$

PAZ047>061-062-071-251300-
EASTERN PENNSYLVANIA

CITY           SKY/WX    TMP DP  RH WIND       PRES   REMARKS
PHILADELPHIA   MOSUNNY   69  59  70 S8        30.28R
ALLENTOWN      CLOUDY    65  57  75 CALM      30.27R
SCRANTON       CLOUDY    68  55  63 CALM      30.24R
$$

CTZ002-004>006-009-010-012-RIZ004-006-007-MAZ004-011-015-251300-
SOUTHERN NEW ENGLAND
 IN CT

CITY           SKY/WX    TMP DP  RH WIND       PRES   REMARKS
BRADLEY INTL   CLOUDY    63  53  70 S3        30.25R
HARTFORD       PTSUNNY   65  54  67 S6        30.26S
DANBURY        MOSUNNY   63  52  67 CALM      30.29R
WTRBRY/OXFORD  SUNNY     63  52  67 SW5       30.29S
BRIDGEPORT     SUNNY     62  55  77 SW7       30.28R
MERIDEN        PTSUNNY   62  53  72 S6        30.27S
NEW HAVEN      MOSUNNY   61  56  83 VRB3      30.28S
CHESTER        FAIR      63  54  72 CALM      30.29S
GROTON         PTSUNNY   61  54  77 SW7       30.29R
WILLIMANTIC    CLOUDY    58  51  78 CALM      30.28S

 IN RI

CITY           SKY/WX    TMP DP  RH WIND       PRES   REMARKS
PROVIDENCE     PTSUNNY   64  53  67 S3        30.27S
BLOCK ISLAND   MOSUNNY   57  52  82 SW13      30.30S
WESTERLY       PTSUNNY   61  53  75 SW7       30.29S

 IN MA

CITY           SKY/WX    TMP DP  RH WIND       PRES   REMARKS
BOSTON         PTSUNNY   65  51  60 S6        30.24S
WORCESTER      CLOUDY    66  49  54 W10       30.26S
WESTFIELD      CLOUDY    60  52  74 CALM      30.25S
PROVINCETOWN   MOSUNNY   59  52  77 S12       30.27S
NANTUCKET      SUNNY     60  53  77 SW13      30.31S
$$

ANZ330-335-338-340-345-350-353-355-251300-
COASTAL MARINE OBSERVATIONS


STATION/POSITION TIME  SKY/WX   TEMP    WIND        PRES    VSBY  WAVE
                                AIR SEA DIR/SP/G                  HT/PER
                 (UTC)          (F)     (DEG/KT/KT) (MB)    (MI)  (FT/S)
NY HARB ENTRANCE 1150            58 56  190/  6/  6 1025.3          2/ 4
4S FIRE IS       1103               54                N/A           3/ 5
20S FIRE ISLAND  1150            57 55  210/ 10/ 10 1025.8          2/ 5
GREAT SOUTH BAY  1100            60 62  240/ 10/ 12   N/A
23SW MTP         1150            55 53  200/  6/  6 1026.0          3/ 5
HUDSON CANYON    NOT AVBL
KINGS POINT      1100            62 55  180/  7/  9 1024.3
CENTRAL LI SOUND 1145            56 52  190/  4/  4   N/A
EASTERN LI SOUND 1100            55     210/  2/  4   N/A
ROBBINS REEF     1100            62     180/  5/  5 1023.9
$$


>>>>>>>>>>>>>>>>>>>>>>>>>>>> KEY <<<<<<<<<<<<<<<<<<<<<<<<<<<
>                                                          <
>     SKY/WX - SKY CONDITION/PRESENT WEATHER               <
>     TMP    - TEMPERATURE IN FAHRENHEIT                   <
>     DP     - DEWPOINT IN FAHRENHEIT                      <
>     RH     - RELATIVE HUMIDITY IN PERCENT                <
>     WIND   - DIRECTION AND SPEED IN MPH                  <
>     PRES   - MEAN SEA LEVEL PRESSURE IN INCHES OF HG     <
>     WCI    - WIND CHILL INDEX                            <
>     VSB    - VISIBILITY IN MILES                         <
>     HX     - HEAT INDEX                                  <
>     TC     - TEMPERATURE IN CELSIUS                      <
>     VRB    - VARIABLE WIND DIRECTION                     <
>                                                          <
>>>>>>>>>>>>>>>>>>>>>>>>>>>> KEY <<<<<<<<<<<<<<<<<<<<<<<<<<<





USA.gov is the U.S. government's official web portal to all federal, state and local government web resources and services.